User: anonymous   Login
Location: Unspecified
(0.0000°N, 0.0000°E)
Time: 09:22:31
(UTC+00:00)
Language:

UNISAT 6 - Orbit

View from above orbital plane
View from above orbital plane
View from above satellite
View from above satellite

Ground track
Ground track

The orbit data is extracted from the following two-line orbital elements,

1 40012U 14033C   17086.92383810 +.00000348 +00000-0 +59811-4 0  9997
2 40012 097.8686 333.1567 0058210 194.1140 165.8444 14.73563682148973
Epoch (UTC): 27 March 2017 22:10:19
Eccentricity: 0.0058210
inclination: 97.8686°
perigee height: 609 km
apogee height: 690 km
right ascension of ascending node: 333.1567°
argument of perigee: 194.1140°
revolutions per day: 14.73563682
mean anomaly at epoch: 165.8444°
orbit number at epoch: 14897

The dashed part of the orbit path shows where the satellite is in the earth's shadow,  

DLR